Weather History for Keene, NH

Change the Weather History Date:

Tuesday, November 20, 2012

  Actual Average Record
Temperature  
Mean Temperature 34 °F -  
Max Temperature 48 °F 45 °F 73 °F (1953)
Min Temperature 19 °F 26 °F 5 °F (1986)
Degree Days  
Heating Degree Days 32    
Moisture  
Dew Point 23 °F    
Average Humidity 76    
Maximum Humidity 93    
Minimum Humidity 37    
Precipitation  
Precipitation 0.00 in - - ()
Sea Level Pressure  
Sea Level Pressure 30.19 in    
Wind  
Wind Speed 0 mph (SSW)    
Max Wind Speed 5 mph    
Max Gust Speed -    
Visibility 9 miles    
Events      
Averages and records for this station are not official NWS values.
T = Trace of Precipitation, MM = Missing Value Source: NWS Daily Summary

Daily Weather History Graph

Daily Weather History Graph

Search for Another Location

Airport:

Trip Planner

Search our weather history database for the weather conditions in past years. The results will help you decide how hot, cold, wet, or windy it might be!

Date:

Astronomy

Nov. 20, 2012 Rise Set
Actual Time 6:48 AM EST 4:21 PM EST
Civil Twilight 6:17 AM EST 4:52 PM EST
Nautical Twilight 5:42 AM EST 5:26 PM EST
Astronomical Twilight 5:08 AM EST 6:00 PM EST
Moon 12:15 PM EST (11/20) 11:56 PM EST (11/20)
Length of Visible Light 10h 35m
Length of Day
9h 33m
Waxing Crescent, 51% of the Moon is Illuminated
Nov 20
Waxing Crescent
Nov 28
Full
Dec 6
Last Quarter
Dec 13
New
Dec 20
First Quarter

Hourly Weather History & Observations

Time (EST) Temp. Windchill Dew Point Humidity Pressure Visibility Wind Dir Wind Speed Gust Speed Precip Events Conditions
12:15 AM 23.0 °F - 21.2 °F 93% 30.27 in 7.0 mi Calm Calm - N/A   Clear
12:35 AM 23.0 °F - 19.4 °F 86% 30.26 in 7.0 mi Calm Calm - N/A   Clear
12:55 AM 21.2 °F 16.4 °F 19.4 °F 93% 30.26 in 7.0 mi South 3.5 mph - N/A   Clear
1:15 AM 21.2 °F 16.4 °F 19.4 °F 93% 30.26 in 9.0 mi SSW 3.5 mph - N/A   Clear
1:35 AM 21.2 °F - 19.4 °F 93% 30.26 in 7.0 mi Calm Calm - N/A   Clear
1:55 AM 23.0 °F - 21.2 °F 93% 30.25 in 7.0 mi Calm Calm - N/A   Clear
2:15 AM 21.2 °F - 17.6 °F 86% 30.25 in 10.0 mi Calm Calm - N/A   Clear
2:35 AM 21.2 °F - 17.6 °F 86% 30.25 in 7.0 mi Calm Calm - N/A   Clear
2:55 AM 21.2 °F - 17.6 °F 86% 30.25 in 8.0 mi Calm Calm - N/A   Clear
3:15 AM 21.2 °F - 19.4 °F 93% 30.24 in 8.0 mi Calm Calm - N/A   Clear
3:35 AM 21.2 °F - 19.4 °F 93% 30.23 in 10.0 mi Calm Calm - N/A   Clear
3:55 AM 21.2 °F - 19.4 °F 93% 30.23 in 9.0 mi Calm Calm - N/A   Clear
4:15 AM 21.2 °F - 17.6 °F 86% 30.23 in 8.0 mi Calm Calm - N/A   Clear
4:35 AM 21.2 °F - 17.6 °F 86% 30.23 in 10.0 mi Calm Calm - N/A   Clear
4:55 AM 19.4 °F - 17.6 °F 93% 30.23 in 7.0 mi Calm Calm - N/A   Clear
5:15 AM 19.4 °F - 17.6 °F 93% 30.23 in 10.0 mi Calm Calm - N/A   Clear
5:35 AM 21.2 °F - 17.6 °F 86% 30.22 in 9.0 mi Calm Calm - N/A   Clear
5:55 AM 19.4 °F - 17.6 °F 93% 30.21 in 10.0 mi Calm Calm - N/A   Clear
6:15 AM 19.4 °F - 17.6 °F 93% 30.22 in 10.0 mi Calm Calm - N/A   Clear
6:35 AM 19.4 °F - 17.6 °F 93% 30.22 in 10.0 mi Calm Calm - N/A   Clear
6:55 AM 19.4 °F - 17.6 °F 93% 30.22 in 9.0 mi Calm Calm - N/A   Clear
7:15 AM 19.4 °F - 17.6 °F 93% 30.23 in 8.0 mi Calm Calm - N/A   Clear
7:35 AM 19.4 °F - 17.6 °F 93% 30.23 in 7.0 mi Calm Calm - N/A   Clear
7:55 AM 21.2 °F - 19.4 °F 93% 30.23 in 8.0 mi Calm Calm - N/A   Clear
8:35 AM 26.6 °F 22.6 °F 23.0 °F 86% 30.23 in 10.0 mi SSW 3.5 mph - N/A   Clear
8:55 AM 26.6 °F - 24.8 °F 93% 30.22 in 10.0 mi Calm Calm - N/A   Clear
9:15 AM 28.4 °F - 24.8 °F 86% 30.22 in 10.0 mi Calm Calm - N/A   Clear
9:35 AM 30.2 °F - 24.8 °F 80% 30.21 in 10.0 mi Calm Calm - N/A   Clear
9:55 AM 30.2 °F - 24.8 °F 80% 30.21 in 10.0 mi Calm Calm - N/A   Clear
10:35 AM 35.6 °F - 26.6 °F 70% 30.21 in 10.0 mi Calm Calm - N/A   Clear
10:55 AM 37.4 °F - 26.6 °F 65% 30.20 in 10.0 mi Calm Calm - N/A   Clear
11:15 AM 37.4 °F - 26.6 °F 65% 30.19 in 9.0 mi Calm Calm - N/A   Clear
11:35 AM 39.2 °F - 26.6 °F 61% 30.18 in 10.0 mi Calm Calm - N/A   Clear
11:55 AM 41.0 °F - 26.6 °F 57% 30.17 in 10.0 mi Calm Calm - N/A   Clear
12:15 PM 42.8 °F - 26.6 °F 53% 30.16 in 10.0 mi Calm Calm - N/A   Clear
12:35 PM 42.8 °F - 26.6 °F 53% 30.15 in 10.0 mi Calm Calm - N/A   Clear
12:55 PM 44.6 °F - 26.6 °F 49% 30.14 in 10.0 mi Calm Calm - N/A   Clear
1:15 PM 46.4 °F - 26.6 °F 46% 30.14 in 10.0 mi Calm Calm - N/A   Clear
1:35 PM 46.4 °F - 26.6 °F 46% 30.14 in 10.0 mi Calm Calm - N/A   Clear
1:55 PM 46.4 °F 45.2 °F 24.8 °F 43% 30.14 in 10.0 mi NNE 3.5 mph - N/A   Clear
2:15 PM 48.2 °F - 24.8 °F 40% 30.14 in 10.0 mi North 3.5 mph - N/A   Clear
2:35 PM 48.2 °F - 24.8 °F 40% 30.14 in 10.0 mi Calm Calm - N/A   Clear
2:55 PM 48.2 °F - 23.0 °F 37% 30.14 in 10.0 mi Calm Calm - N/A   Clear
3:15 PM 48.2 °F - 23.0 °F 37% 30.14 in 10.0 mi Calm Calm - N/A   Clear
3:35 PM 44.6 °F - 24.8 °F 46% 30.15 in 10.0 mi Calm Calm - N/A   Clear
3:55 PM 44.6 °F - 24.8 °F 46% 30.15 in 10.0 mi Calm Calm - N/A   Clear
4:15 PM 39.2 °F - 24.8 °F 56% 30.15 in 10.0 mi Calm Calm - N/A   Clear
4:35 PM 37.4 °F - 24.8 °F 60% 30.15 in 10.0 mi Calm Calm - N/A   Clear
4:55 PM 35.6 °F - 24.8 °F 65% 30.15 in 10.0 mi Calm Calm - N/A   Clear
5:15 PM 35.6 °F - 26.6 °F 70% 30.16 in 10.0 mi Calm Calm - N/A   Clear
5:35 PM 35.6 °F - 24.8 °F 65% 30.16 in 10.0 mi Calm Calm - N/A   Clear
5:55 PM 33.8 °F - 26.6 °F 75% 30.16 in 10.0 mi Calm Calm - N/A   Clear
6:15 PM 33.8 °F - 24.8 °F 70% 30.16 in 10.0 mi Calm Calm - N/A   Clear
6:35 PM 32.0 °F - 24.8 °F 75% 30.17 in 10.0 mi Calm Calm - N/A   Clear
6:55 PM 32.0 °F - 24.8 °F 75% 30.16 in 10.0 mi Calm Calm - N/A   Clear
7:15 PM 30.2 °F 26.7 °F 24.8 °F 80% 30.17 in 10.0 mi SSW 3.5 mph - N/A   Clear
7:35 PM 30.2 °F 26.7 °F 24.8 °F 80% 30.17 in 10.0 mi SSW 3.5 mph - N/A   Clear
7:55 PM 30.2 °F - 26.6 °F 86% 30.17 in 10.0 mi Calm Calm - N/A   Clear
8:15 PM 30.2 °F - 26.6 °F 86% 30.16 in 10.0 mi Calm Calm - N/A   Clear
8:35 PM 30.2 °F - 24.8 °F 80% 30.17 in 10.0 mi Calm Calm - N/A   Clear
8:55 PM 30.2 °F - 24.8 °F 80% 30.17 in 8.0 mi Calm Calm - N/A   Clear
9:15 PM 30.2 °F 25.4 °F 24.8 °F 80% 30.18 in 10.0 mi South 4.6 mph - N/A   Clear
9:35 PM 30.2 °F - 24.8 °F 80% 30.18 in 10.0 mi Calm Calm - N/A   Clear
9:55 PM 30.2 °F 26.7 °F 24.8 °F 80% 30.17 in 9.0 mi South 3.5 mph - N/A   Clear
10:15 PM 28.4 °F - 24.8 °F 86% 30.17 in 8.0 mi Calm Calm - N/A   Clear
10:35 PM 30.2 °F - 24.8 °F 80% 30.17 in 8.0 mi Calm Calm - N/A   Clear
10:55 PM 30.2 °F - 24.8 °F 80% 30.18 in 10.0 mi Calm Calm - N/A   Clear
11:15 PM 30.2 °F - 24.8 °F 80% 30.18 in 10.0 mi Calm Calm - N/A   Clear
11:35 PM 30.2 °F - 24.8 °F 80% 30.18 in 8.0 mi Calm Calm - N/A   Clear
11:55 PM 28.4 °F - 24.8 °F 86% 30.18 in 8.0 mi Calm Calm - N/A   Clear